Other Public Products
Issued by NWS Charleston, SC

Current Version | Previous Version | Graphics & Text | Print | Product List | Glossary On
Versions: 1 2 3 4 5 6 7 8 9 10 11 12 13 14 15 16 17 18 19 20 21 22 23 24 25 26 27 28 29 30 31 32 33 34 35 36 37 38 39 40 41 42 43 44 45 46 47 48 49 50
000
FPUS82 KCHS 261012
OPUCHS

TEST...KCHS/KSAV Gateway Observations...TEST
National Weather Service Charleston SC
600 AM EDT SUN MAR 26 2017

NOTE: "fair" indicates few or no clouds below 12,000 feet with no
significant weather and/or obstructions to visibility.

SCZ050-WAZ558-NCZ071-TXZ119-213-PAZ071-DCZ001-FLZ074-172-MI076-
NYZ176-178-MAZ016-IL014-TNZ027-NJZ106-GAZ044-MD014-261100-

...Gateway Observations for Charleston International...

CITY           SKY/WX    TMP DP  RH WIND       PRES   REMARKS
Chas Airport   PTCLDY    57  55  93 CALM      30.17S
Seattle        CLOUDY    44  39  82 E3        29.96F
Charlotte      MOCLDY    56  52  86 S7        30.17R
Dallas DFW     CLEAR     54  47  77 E5        29.84F
Dallas Love    CLEAR     56  48  74 E6        29.86F
Philladelphia  CLOUDY    43  37  79 E12       30.37R
Wash National  CLOUDY    50  44  80 E15       30.28R
Baltimore      MOCLDY    46  41  82 E13       30.30R
Miami          MOCLDY    69  66  90 N3        30.07R
Detroit        CLOUDY    40  37  89 E3        30.07R
Newark         CLOUDY    40  35  83 NE12      30.41S WCI  33
Laguardia      CLOUDY    40  33  76 NE17      30.42R WCI  31
J F K          CLOUDY    39  37  92 NE10      30.42S WCI  32
Boston Logan   CLOUDY    30  26  85 N10       30.50R WCI  21
Ft. Lauderdale LGT RAIN  72  65  78 E10       30.06R
Chicago O`Hare LGT RAIN  47  45  93 NE6       29.86F FOG
Chicago Midway CLOUDY    49  48  97 E6        29.87F FOG
Houston Bush   PTCLDY    66  64  93 S5        29.89F
Houston Hobby  MOCLDY    68  67  96 S6        29.89F
Nashville      CLOUDY    58  56  93 S10       29.97R
Atlanta        PTCLDY    59  58  96 SE6       30.08R

$$

GAZ044-118-TXZ119-213-NCZ071-DCZ001-MDZ014-506-PAZ021-071-NJZ106-
NYZ176-178-MAZ106-OHZ011-021-055-MIZ076-KYZ091-ILZ014-INZ047-
MNZ060-ONZ431-261100-

...Gateway Observations for Savannah International...

CITY           SKY/WX    TMP DP  RH WIND       PRES   REMARKS
Savannah Arpt  PTCLDY    58  54  86 SE3       30.15F
Atlanta        PTCLDY    59  58  96 SE6       30.08R
Charlotte      MOCLDY    56  52  86 S7        30.17R
Dallas DFW     CLEAR     54  47  77 E5        29.84F
Houston Bush   PTCLDY    66  64  93 S5        29.89F
Wash National  CLOUDY    50  44  80 E15       30.28R
Wash Dulles    CLOUDY    48  41  76 E6        30.27R
Baltimore      MOCLDY    46  41  82 E13       30.30R
Philadelphia   CLOUDY    43  37  79 E12       30.37R
Newark         CLOUDY    40  35  83 NE12      30.41S WCI  33
Laguardia      CLOUDY    40  33  76 NE17      30.42R WCI  31
J F K          CLOUDY    39  37  92 NE10      30.42S WCI  32
Boston         CLOUDY    30  26  85 N10       30.50R WCI  21
Pittsburg      MOCLDY    57  50  77 E8        30.07F
Akron          PTCLDY    58  49  72 SE9       30.03S
Cleveland      CLOUDY    50  42  74 SE5       30.03F
Cincinnati     LGT RAIN  58  56  93 S6        29.98R
Columbus       MOCLDY    59  49  70 S9        29.97S
Detroit        CLOUDY    40  37  89 E3        30.07R
Chicago O`Hare LGT RAIN  47  45  93 NE6       29.86F FOG
Minneapolis    DRIZZLE   37  33  85 E7        29.94F WCI  32
Indianapolis   LGT RAIN  56  56 100 SE10      29.91F
Toronto Canada CLOUDY    34  32  93 E12G17    30.24F WCI  25

$$




USA.gov is the U.S. government's official web portal to all federal, state and local government web resources and services.